STARLINK-3111, 49418

Orbit data source: Space-Track

STARLINK-3111, 49418 is a payload satellite owned by SpaceX/Seattle (US) in LEO that was launched on Sat, 13 Nov 2021 UTC via an FALCON 9 launch vehicle from the Air Force Eastern Test Range (AFETR). Payload-class satellites include a variety of spacecraft equipped with specific instruments for various scientific and technological missions. These include communications satellites like Starlink; space stations such as the ISS; scientific satellites like the Hubble; Earth observation satellites from companies like Planet Labs, Umbra, and HawkEye 360; GPS; miniature CubeSats for education and research; and military/defense satellites.

Loading next visibility...
Identifier
49418, 2021-104L
Orbit
LEO
Country
Flag of USUS
Related business
Manufacturer
SpaceX/Seattle
Mission
Operational Commercial Communications
Bus & Motor
STARLINK, Unknown motor
Mass
290 kg wet, ~270 kg dry
Launch date (UTC)
2021-11-13 (5 years ago)
Launch vehicle
FALCON 9
Launch site
Air Force Eastern Test Range (AFETR)
Object type
Payload
Rocket body
Debris
Shape & HBR
Box + 1 Pan, 10.1 m
Radar Cross Section
13.562 m², Large (>1 m²)

Expand to show TLE details & history
Last TLE update: 1 week ago

TLE from 1 week ago
0 STARLINK-3111
1 49418U 21104L   26154.28672589  .00000436  00000-0  45471-4 0  9997
2 49418  53.1911 204.8411 0001212  96.4686 263.6444 15.08843827251545
Epoch: 2026-06-03T06:52Z
TLE epoch observation values (Epoch: 2026-06-03T06:52:53.116Z)
Latitude
-0.00003°
Longitude
-150.12776°
Altitude
540.719 km
Speed
7.593 km/s
True Right ascension
13h 39m 21s
True Declination
0° 00' 00"
Sunlit
Object was in full shadow at epoch
Visualization orbit readout
Latitude
Unknown
Longitude
Unknown
Altitude
Unknown
Speed
Unknown
Apparent Right ascension
Unknown
Apparent Declination
Unknown
Sunlit
N/A
Visualization observer readout
Local Sidereal Time
14:52:27
Azimuth
Unknown
Elevation
Unknown
Doppler factor
Unknown
Orbital elements
Apogee altitude
540.819 km
Perigee altitude
539.142 km
Semi-major axis
6,918.118 km
Eccentricity
0.00012
Inclination
53.1911°
RAAN
204.8411°
Arg. of periapsis
96.4686°
True anomaly
263.6306°
Mean anomaly
263.6444°
Eccentric anomaly
263.6375°
Mean motion
3.77191 °/min
Orbital period
95.44 mins
BSTAR
0.000045471
Loading maneuver chart data...
Computing Atmospheric mass density...
Loading historical data...
Loading historical data...
Loading historical data...
Loading historical data...
Loading historical data...
Loading historical data...
Loading historical data...

Documentation

Showing up to 5 results
|